[[{"header":{"parameterUnit":"m.s-1","parameterCategory":1,"la1":30.2991,"la2":30.254,"lo1":-89.0895,"lo2":-89.0444,"dy":0.0017,"dx":0.0017,"nx":28,"ny":28,"refTime":"2023-07-30T03:00:00:Z","depth":0,"parameterNumber":2,"parameterNumberName":"U-component_of_WINDS"},"data":[0,0,0,0,0,0,0,0,0,0,0,0,0,0,0,0,0,0,0,0,0,0,0,0,0,0,0,0,0,0,0,0,0,0,0,0,0,0,0,0,0,0,0,0,0,0,0,0,0,0,0,0,0,0,0,0,0,0,0.1387,0.1387,0,0.1372,0.1372,0.1372,0.1259,0.1256,0.1253,0.125,0.124,0.1242,0.1244,0,0,0,0,0,0,0,0,0,0,0,0,0,0.1322,0.1324,0.1387,0.1387,0.1387,0.1372,0.1372,0.1372,0.1259,0.1256,0.1252,0.1249,0.1239,0.1242,0.1244,0,0,0,0,0,0,0,0,0,0,0,0,0,0.1333,0.1324,0.1387,0.1328,0.1323,0.1372,0.1372,0.1372,0.126,0.1256,0.1251,0.1247,0.1238,0.1241,0.1245,0.135,0,0,0.1255,0.1257,0,0,0,0,0,0,0,0,0.1333,0.1336,0.1337,0.1333,0.1327,0.1313,0.1345,0.1365,0.1261,0.1284,0.125,0.1245,0.1268,0.1268,0.1275,0.135,0.1349,0.1256,0.1258,0.1259,0.126,0,0,0,0,0,0,0,0.1332,0.1336,0.1381,0.1337,0.1331,0.1304,0.1301,0.1348,0.13,0.1282,0.1273,0.1273,0.1264,0.1272,0.1274,0.1349,0.1256,0.1259,0.1261,0.1262,0.1512,0.1517,0,0,0,0,0,0,0.1339,0.1336,0.1382,0.1381,0.1319,0.1309,0.1306,0.1322,0.1299,0.1291,0.1277,0.1268,0.1268,0.127,0.1273,0.1397,0.1259,0.1263,0.1265,0.1508,0.1513,0.1518,0,0,0,0,0,0,0.1338,0.1344,0.1382,0.1356,0.1359,0.1315,0.1334,0.1324,0.1331,0.1295,0.1286,0.1293,0.1265,0.1268,0.1332,0.1395,0.1264,0.1267,0.1503,0.151,0.1516,0.1646,0,0,0,0,0,0,0.1336,0.1344,0.1383,0.1358,0.1361,0.1441,0.1337,0.1326,0.1337,0.1326,0.1308,0.1302,0.1262,0.1328,0.1336,0.1398,0.127,0.1497,0.1506,0.1514,0.1636,0.1656,0.1673,0,0,0,0,0,0.1334,0.142,0.1385,0.1392,0.1408,0.1444,0.1446,0.1398,0.1343,0.1382,0.1359,0.1302,0.1387,0.1335,0.1343,0.1407,0.1493,0.1503,0.1513,0.1627,0.1652,0.1673,0,0,0,0,0,0,0.1455,0.1416,0.1377,0.1457,0.1455,0.1425,0.1473,0.1425,0.144,0.1429,0.1368,0.1366,0.144,0.1429,0.1373,0.1509,0.143,0.1442,0.1514,0.1537,0.1556,0.1558,0.1273,0,0,0,0,0,0.1491,0.1523,0.1487,0.1561,0.1562,0.1518,0.1532,0.1495,0.1491,0.149,0.1471,0.1471,0.1497,0.1516,0.1538,0.1633,0.1629,0.1681,0.17,0.1716,0.1728,0.1779,0.1803,0.1552,0.1552,0.1552,0,0,0.1566,0.1548,0.1572,0.1585,0.1579,0.1615,0.1518,0.156,0.1587,0.1497,0.1556,0.1543,0.1538,0.1619,0.1653,0.1613,0.1796,0.1729,0.1741,0.1745,0.1792,0.1816,0.1837,0.1559,0.1558,0.1557,0,0,0.1721,0.1709,0.1771,0.1767,0.1759,0.1729,0.1744,0.1722,0.1709,0.1768,0.1701,0.1733,0.1779,0.1779,0.1786,0.1942,0.1891,0.1951,0.2051,0.2102,0.2122,0.2139,0.2197,0.2218,0.1962,0.1963,0.1963,0,0.1815,0.1865,0.1809,0.1856,0.1864,0.1783,0.1846,0.1845,0.1846,0.1854,0.1808,0.1866,0.1857,0.1937,0.1975,0.1982,0.1999,0.1953,0.2123,0.214,0.2155,0.221,0.2232,0.197,0.1969,0.1969,0.1968,0,0.1983,0.2019,0.207,0.2071,0.2085,0.214,0.2094,0.2116,0.2077,0.2053,0.2115,0.2101,0.212,0.2136,0.2099,0.2212,0.2187,0.2133,0.2052,0.2187,0.2238,0.2258,0.1981,0.1978,0.1976,0.1974,0,0,0.2215,0.2184,0.2204,0.2205,0.219,0.2218,0.2269,0.2287,0.2308,0.2311,0.2354,0.2395,0.2345,0.2353,0.2315,0.2359,0.2487,0.23,0.2299,0.2337,0.2614,0.2657,0.2682,0.2452,0.2456,0.2459,0.2615,0,0.2366,0.2451,0.2403,0.2496,0.253,0.2453,0.2499,0.2496,0.2475,0.2502,0.2479,0.251,0.244,0.2444,0.2485,0.2463,0.2542,0.2451,0.2495,0.2497,0.2501,0.2708,0.2753,0.2901,0.2634,0.2637,0.264,0,0.2553,0.2564,0.2661,0.2641,0.2653,0.2695,0.2708,0.2733,0.2729,0.2711,0.272,0.2671,0.2723,0.2642,0.2713,0.2652,0.2667,0.2659,0.2664,0.2668,0.2579,0.272,0.2946,0.297,0.267,0.2667,0.2665,0,0.2716,0.2754,0.2817,0.282,0.2798,0.2829,0.2822,0.2813,0.2827,0.2839,0.2848,0.2866,0.2876,0.2892,0.2851,0.2795,0.2929,0.2843,0.2917,0.2919,0.2951,0.295,0.3186,0.2957,0.2957,0.2956,0.2956,0,0.2891,0.2954,0.289,0.293,0.2999,0.2942,0.3013,0.2997,0.299,0.3027,0.2961,0.2997,0.2939,0.297,0.2938,0.3003,0.3008,0.2996,0.2988,0.3004,0.3006,0.3015,0.3004,0.2962,0.2961,0.2959,0.2958,0,0.3085,0.3045,0.3109,0.3083,0.3078,0.313,0.3108,0.3144,0.3118,0.3166,0.3173,0.3134,0.3167,0.3126,0.3156,0.3134,0.3224,0.3199,0.3226,0.3219,0.3297,0.3291,0.3548,0.358,0.3329,0.3331,0.3333,0,0.3201,0.3248,0.3226,0.3245,0.3241,0.3273,0.3287,0.3234,0.3251,0.325,0.3288,0.3315,0.3334,0.339,0.3365,0.3388,0.3364,0.3452,0.3367,0.3383,0.3369,0.3367,0.3373,0.3471,0.3474,0.3476,0.3478,0,0.3412,0.3389,0.3411,0.3427,0.3445,0.3456,0.3461,0.3481,0.3425,0.3449,0.3481,0.3496,0.3525,0.3554,0.357,0.3564,0.3514,0.3505,0.3524,0.3542,0.3557,0.3553,0.3276,0.35,0.3498,0.3496,0.3495,0.3494,0.3572,0.361,0.3601,0.3629,0.3627,0.3634,0.3667,0.3645,0.3671,0.369,0.3657,0.3699,0.3695,0.3711,0.371,0.3743,0.3705,0.3732,0.3739,0.3747,0.376,0.355,0.3746,0.3745,0.3744,0.3744,0.3743,0,0.3781,0.3771,0.3797,0.3806,0.3829,0.3776,0.378,0.3803,0.384,0.3839,0.3859,0.3898,0.3925,0.3902,0.3926,0.3957,0.3934,0.3965,0.3963,0.3963,0.3792,0.3774,0.3983,0.3983,0.3983,0.3983,0.3983,0.3982,0.3893,0.3956,0.3933,0.3996,0.3986,0.4025,0.4032,0.4039,0.4038,0.4084,0.4106,0.409,0.4082,0.4104,0.4128,0.412,0.4133,0.4173,0.4158,0.3999,0.3975,0.3953,0.3936,0.4176,0.4176,0.4327,0.4329,0.433]},{"header":{"parameterUnit":"m.s-1","parameterCategory":1,"la1":30.2991,"la2":30.254,"lo1":-89.0895,"lo2":-89.0444,"dy":0.0017,"dx":0.0017,"nx":28,"ny":28,"refTime":"2023-07-30T03:00:00:Z","depth":0,"parameterNumber":3,"parameterNumberName":"V-component_of_WINDS"},"data":[0,0,0,0,0,0,0,0,0,0,0,0,0,0,0,0,0,0,0,0,0,0,0,0,0,0,0,0,0,0,0,0,0,0,0,0,0,0,0,0,0,0,0,0,0,0,0,0,0,0,0,0,0,0,0,0,0,0,-1.6107,-1.6107,0,-1.6117,-1.6117,-1.6117,-1.6104,-1.6104,-1.6103,-1.6103,-1.6112,-1.6112,-1.6113,0,0,0,0,0,0,0,0,0,0,0,0,0,-1.6079,-1.6079,-1.6107,-1.6107,-1.6107,-1.6117,-1.6117,-1.6117,-1.6104,-1.6104,-1.6103,-1.6103,-1.6111,-1.6112,-1.6113,0,0,0,0,0,0,0,0,0,0,0,0,0,-1.609,-1.608,-1.6107,-1.6102,-1.6102,-1.6117,-1.6117,-1.6117,-1.6104,-1.6104,-1.6103,-1.6102,-1.6111,-1.6112,-1.6113,-1.6132,0,0,-1.6116,-1.6116,0,0,0,0,0,0,0,0,-1.6089,-1.6091,-1.6103,-1.6103,-1.6102,-1.6109,-1.611,-1.6122,-1.6105,-1.6103,-1.6103,-1.6102,-1.6111,-1.6112,-1.6115,-1.6133,-1.6133,-1.6116,-1.6117,-1.6117,-1.6117,0,0,0,0,0,0,0,-1.6089,-1.6091,-1.6111,-1.6103,-1.6103,-1.61,-1.6101,-1.6112,-1.6111,-1.6104,-1.6103,-1.6104,-1.6111,-1.6114,-1.6115,-1.6133,-1.6116,-1.6117,-1.6117,-1.6118,-1.617,-1.6171,0,0,0,0,0,0,-1.6088,-1.609,-1.6111,-1.6111,-1.6094,-1.6101,-1.6102,-1.6107,-1.6111,-1.6111,-1.6105,-1.6103,-1.6113,-1.6114,-1.6116,-1.614,-1.6117,-1.6118,-1.6118,-1.6169,-1.617,-1.6171,0,0,0,0,0,0,-1.6088,-1.609,-1.611,-1.61,-1.6103,-1.6102,-1.6108,-1.6108,-1.6111,-1.6112,-1.6111,-1.6108,-1.6112,-1.6114,-1.6129,-1.614,-1.6118,-1.6119,-1.6168,-1.6169,-1.617,-1.6189,0,0,0,0,0,0,-1.6087,-1.609,-1.6097,-1.6101,-1.6103,-1.6123,-1.6109,-1.6108,-1.6113,-1.6112,-1.6115,-1.6115,-1.6112,-1.6128,-1.613,-1.6141,-1.612,-1.6167,-1.6169,-1.617,-1.6187,-1.619,-1.6193,0,0,0,0,0,-1.6086,-1.6101,-1.6098,-1.61,-1.6112,-1.6124,-1.6126,-1.6122,-1.6114,-1.6122,-1.6122,-1.6115,-1.6139,-1.6129,-1.6132,-1.6143,-1.6166,-1.6168,-1.617,-1.6186,-1.619,-1.6193,0,0,0,0,0,0,-1.6099,-1.6102,-1.6098,-1.6115,-1.6119,-1.6122,-1.6131,-1.6126,-1.6133,-1.6131,-1.6126,-1.6127,-1.6144,-1.6145,-1.6134,-1.6164,-1.6151,-1.6154,-1.6162,-1.6166,-1.6169,-1.6169,-1.6121,0,0,0,0,0,-1.6104,-1.6113,-1.6115,-1.613,-1.6132,-1.6132,-1.6136,-1.6134,-1.6138,-1.614,-1.6141,-1.6146,-1.6155,-1.616,-1.6168,-1.6187,-1.6189,-1.6197,-1.62,-1.6202,-1.6205,-1.6217,-1.6221,-1.6177,-1.6177,-1.6177,0,0,-1.6113,-1.6116,-1.6122,-1.6132,-1.6136,-1.6146,-1.6133,-1.6144,-1.6152,-1.6141,-1.6156,-1.6157,-1.6162,-1.618,-1.6188,-1.6181,-1.6217,-1.6205,-1.6207,-1.6207,-1.6219,-1.6223,-1.6227,-1.6178,-1.6178,-1.6178,0,0,-1.6137,-1.6139,-1.6153,-1.6157,-1.6163,-1.6162,-1.6166,-1.6169,-1.617,-1.6185,-1.6178,-1.6187,-1.6202,-1.6206,-1.621,-1.6238,-1.6232,-1.624,-1.6257,-1.6269,-1.6272,-1.6275,-1.6287,-1.6291,-1.6243,-1.6243,-1.6243,0,-1.6148,-1.6164,-1.616,-1.6173,-1.6178,-1.617,-1.6184,-1.6188,-1.6196,-1.62,-1.6193,-1.6212,-1.6215,-1.6234,-1.6242,-1.6244,-1.6249,-1.624,-1.6272,-1.6275,-1.6278,-1.6289,-1.6293,-1.6244,-1.6244,-1.6244,-1.6243,0,-1.6178,-1.6189,-1.6199,-1.6208,-1.6215,-1.6228,-1.6227,-1.6234,-1.6231,-1.6232,-1.6248,-1.6251,-1.626,-1.6264,-1.6261,-1.6284,-1.628,-1.6273,-1.626,-1.6283,-1.6293,-1.6297,-1.6245,-1.6245,-1.6245,-1.6244,0,0,-1.6209,-1.6218,-1.6221,-1.6226,-1.6233,-1.6241,-1.6255,-1.6265,-1.6271,-1.6277,-1.6289,-1.6302,-1.6296,-1.6301,-1.6298,-1.6309,-1.6333,-1.63,-1.63,-1.6307,-1.636,-1.6367,-1.6371,-1.6329,-1.6329,-1.633,-1.636,0,-1.6234,-1.6257,-1.6256,-1.6278,-1.6289,-1.6283,-1.6294,-1.63,-1.6301,-1.6311,-1.6312,-1.6323,-1.6313,-1.6316,-1.6326,-1.6328,-1.6343,-1.6325,-1.634,-1.6341,-1.634,-1.6376,-1.6383,-1.6411,-1.6364,-1.6365,-1.6365,0,-1.6265,-1.6274,-1.6298,-1.6305,-1.6309,-1.632,-1.633,-1.6339,-1.6346,-1.6346,-1.6353,-1.6349,-1.6363,-1.635,-1.6371,-1.6358,-1.6364,-1.6367,-1.6368,-1.6369,-1.6355,-1.6381,-1.642,-1.6425,-1.6371,-1.6371,-1.637,0,-1.6288,-1.6305,-1.6322,-1.6326,-1.6334,-1.6342,-1.6346,-1.6352,-1.6359,-1.6368,-1.6372,-1.6382,-1.6388,-1.6396,-1.6395,-1.6385,-1.6417,-1.6403,-1.6418,-1.6418,-1.6425,-1.6425,-1.6468,-1.6427,-1.6427,-1.6427,-1.6427,0,-1.6316,-1.6331,-1.6332,-1.6343,-1.636,-1.6359,-1.6376,-1.6379,-1.6385,-1.6396,-1.639,-1.6401,-1.6399,-1.6411,-1.641,-1.6428,-1.643,-1.6431,-1.6431,-1.6433,-1.6433,-1.6437,-1.6436,-1.6428,-1.6428,-1.6428,-1.6428,0,-1.6343,-1.6345,-1.6363,-1.637,-1.6372,-1.6385,-1.6391,-1.6401,-1.6403,-1.6417,-1.6421,-1.6423,-1.6436,-1.6436,-1.6451,-1.645,-1.6473,-1.647,-1.6471,-1.6471,-1.6487,-1.6486,-1.6534,-1.6541,-1.6496,-1.6496,-1.6496,0,-1.6362,-1.6374,-1.6382,-1.639,-1.6395,-1.6407,-1.6414,-1.6414,-1.6422,-1.6431,-1.6441,-1.6454,-1.6464,-1.6485,-1.6488,-1.65,-1.6498,-1.6514,-1.65,-1.6501,-1.65,-1.65,-1.6502,-1.6517,-1.6518,-1.6518,-1.6519,0,-1.6395,-1.6396,-1.6407,-1.6419,-1.6428,-1.6437,-1.6446,-1.6452,-1.6453,-1.6462,-1.6476,-1.6484,-1.65,-1.6513,-1.6525,-1.6529,-1.6524,-1.6523,-1.6528,-1.6529,-1.653,-1.6532,-1.648,-1.6522,-1.6522,-1.6522,-1.6521,-1.6521,-1.6419,-1.643,-1.6439,-1.6452,-1.6459,-1.6468,-1.6478,-1.6482,-1.6494,-1.6507,-1.6506,-1.6522,-1.653,-1.6545,-1.6551,-1.6563,-1.6558,-1.6563,-1.6565,-1.6567,-1.657,-1.6528,-1.6565,-1.6565,-1.6565,-1.6565,-1.6565,0,-1.6454,-1.6459,-1.6471,-1.6484,-1.6495,-1.6491,-1.65,-1.651,-1.6524,-1.6532,-1.6543,-1.656,-1.6573,-1.6578,-1.6591,-1.6601,-1.6599,-1.6604,-1.6604,-1.6605,-1.6573,-1.6569,-1.6605,-1.6605,-1.6605,-1.6605,-1.6605,-1.6605,-1.6473,-1.6492,-1.6494,-1.6517,-1.6522,-1.6538,-1.6545,-1.6553,-1.656,-1.6579,-1.6591,-1.6594,-1.6602,-1.6616,-1.6628,-1.6629,-1.6635,-1.6641,-1.6642,-1.6611,-1.6607,-1.6604,-1.6599,-1.6642,-1.6642,-1.6673,-1.6674,-1.6674]}]]